Temp
4 5 5 5 5 5 6 6 7 7 7 7 8 8 9 10 10 10 9 9 9 10 11 11 12 13 13 13 13 14 14 16 17 18 15 15 16 15 15 15 16 17 17 17 16
4 4 5 5 4 5 5 6 6 7 7 7 8 8 8 10 9 8 7 9 10 10 11 12 13 14 14 14 14 15 14 15 15 14 15 15 15 15 15 16 17 17 17 16 16
4 4 5 4 4 5 5 6 6 6 7 7 7 8 8 9 10 7 7 9 10 10 11 13 13 14 14 14 14 15 14 16 14 13 13 14 14 14 14 14 16 15 15 15 14
4 4 5 5 4 4 4 5 6 6 6 6 7 7 8 9 9 6 8 9 10 10 11 12 13 14 13 14 13 14 14 14 13 11 12 13 13 13 14 14 15 15 14 14 13
4 4 4 4 4 4 4 5 6 6 6 6 7 6 7 6 6 7 8 9 9 10 11 12 13 14 14 14 14 15 14 13 12 11 11 12 12 12 13 14 14 14 13 13 14
3 3 3 3 4 4 4 4 6 5 6 6 6 6 7 5 6 7 7 8 9 10 11 12 13 13 14 14 13 13 13 13 12 12 11 11 12 13 14 14 13 13 14 14 13
3 3 4 4 4 4 4 4 6 5 5 6 6 7 7 5 6 7 7 8 9 10 10 11 12 12 13 12 11 12 12 12 12 12 12 10 11 11 14 14 13 13 14 14 13
3 3 2 3 3 3 4 4 5 5 5 5 5 6 3 6 7 8 8 8 9 9 10 10 11 12 12 11 12 12 13 12 12 12 11 11 12 15 15 14 14 14 14 14 14
3 3 3 3 3 4 4 5 5 5 6 6 6 7 3 5 7 7 8 8 9 10 10 11 11 10 11 12 11 13 12 14 11 12 12 11 11 14 15 15 15 15 14 14 14
3 3 4 4 4 4 4 4 4 4 5 6 6 6 4 5 6 7 7 8 8 9 10 10 11 10 11 8 9 11 14 15 14 11 12 10 10 12 14 15 14 14 14 13 12
3 3 5 4 4 4 3 4 4 4 4 4 4 5 5 6 7 7 8 9 9 10 11 10 8 8 9 9 10 11 12 12 13 11 10 10 11 12 14 14 13 13 12 11 9
3 3 4 4 4 4 4 3 2 3 3 3 3 4 6 7 8 7 9 10 11 10 10 9 7 9 9 10 10 10 11 11 11 11 11 10 11 12 13 13 13 12 10 8 7
3 3 3 3 4 4 4 4 4 4 3 3 3 4 6 7 8 7 8 10 11 11 11 9 9 9 10 9 9 10 9 9 9 10 11 10 10 12 12 12 12 12 9 7 6
3 4 4 4 4 4 5 5 5 5 5 4 5 6 7 7 8 7 7 8 10 10 10 8 9 9 10 8 9 10 10 10 9 7 7 10 7 13 11 11 12 10 8 6 5
4 4 5 6 5 5 5 5 5 5 6 6 7 7 8 8 7 8 8 10 10 9 10 8 8 9 9 6 10 9 9 9 9 8 7 10 6 12 12 12 10 9 7 5 4
4 5 5 5 4 5 6 6 5 6 5 7 9 9 9 9 9 9 9 8 8 10 9 8 8 9 9 10 9 10 8 9 9 9 8 7 8 9 12 11 10 8 6 5 5
6 6 6 5 6 6 6 7 6 6 7 8 8 10 10 10 10 11 10 9 8 6 5 8 9 9 8 9 9 9 6 6 7 9 7 9 5 7 11 9 8 7 6 4 4
6 6 6 7 6 6 6 6 5 6 8 9 10 10 9 10 10 10 10 8 10 11 7 6 6 9 9 9 10 11 10 5 7 6 6 7 4 8 10 10 8 7 5 3 2
7 7 7 7 7 7 6 6 5 8 9 9 10 10 9 10 10 11 10 10 10 10 9 5 7 10 9 11 10 11 9 10 6 7 6 6 8 10 11 10 9 7 5 4 3
9 7 8 8 8 8 7 6 7 10 10 10 10 10 10 10 10 11 11 10 10 10 10 10 7 10 9 9 9 9 10 7 8 5 7 7 10 8 9 8 8 7 5 3 3
10 9 9 9 9 9 6 7 8 9 9 10 11 11 11 10 11 11 11 10 11 10 10 10 9 9 10 8 9 7 8 9 9 9 6 7 7 10 8 6 7 7 5 3 3
10 9 10 10 9 10 7 10 9 9 9 10 11 11 12 11 12 12 12 11 11 11 11 9 9 7 10 11 11 10 10 9 6 9 8 8 7 11 10 9 8 7 5 4 3
10 10 10 11 8 7 9 9 9 9 10 10 11 11 11 12 11 12 11 10 10 10 9 10 9 5 10 10 10 9 10 10 10 9 7 6 8 10 9 9 8 8 6 5 4
10 6 11 10 11 11 10 10 9 9 10 10 11 11 11 11 11 11 11 10 10 10 9 9 9 8 7 10 9 9 10 10 9 5 8 8 9 10 10 8 9 8 7 6 5
10 8 8 8 10 11 11 11 10 10 9 10 10 10 11 11 11 11 12 10 9 9 8 8 7 7 8 9 9 8 9 9 8 8 7 9 9 10 10 10 11 11 9 7 7
9 9 9 10 9 10 8 11 11 10 10 10 10 12 11 10 11 11 11 11 11 8 8 8 5 7 5 8 8 7 8 9 9 9 9 10 9 11 12 12 12 12 11 9 8
8 8 9 9 10 10 11 11 11 10 10 10 10 10 10 10 10 10 10 10 10 9 7 8 5 5 5 7 7 6 9 9 9 9 9 8 10 10 10 10 11 11 11 11 10
Height
1453 1456 1458 1461 1464 1466 1467 1468 1469 1471 1473 1477 1479 1484 1488 1492 1495 1496 1496 1499 1498 1500 1502 1504 1509 1510 1511 1513 1514 1514 1517 1513 1512 1512 1522 1523 1523 1525 1525 1525 1525 1525 1524 1523 1523
1454 1458 1459 1461 1463 1465 1466 1467 1469 1470 1471 1475 1479 1482 1489 1493 1496 1496 1499 1498 1499 1500 1503 1507 1510 1510 1512 1515 1516 1515 1518 1518 1518 1520 1521 1524 1526 1525 1525 1524 1523 1522 1523 1524 1523
1457 1458 1458 1460 1463 1466 1468 1468 1469 1471 1472 1476 1479 1483 1486 1491 1497 1500 1499 1498 1500 1501 1503 1509 1510 1511 1513 1515 1516 1516 1520 1519 1522 1524 1526 1526 1526 1525 1525 1523 1522 1522 1521 1521 1521
1459 1459 1458 1460 1465 1467 1468 1468 1469 1472 1473 1474 1477 1484 1488 1492 1499 1500 1500 1500 1502 1502 1505 1509 1510 1510 1514 1514 1517 1521 1522 1521 1525 1526 1526 1527 1527 1525 1524 1522 1521 1521 1521 1520 1520
1462 1461 1462 1463 1466 1468 1468 1469 1469 1472 1475 1477 1480 1486 1490 1494 1501 1503 1501 1502 1504 1504 1507 1511 1511 1510 1512 1515 1518 1519 1523 1524 1525 1526 1526 1526 1525 1524 1520 1519 1520 1520 1519 1518 1518
1465 1465 1465 1466 1467 1467 1467 1468 1470 1474 1476 1478 1485 1490 1491 1494 1502 1505 1503 1504 1505 1507 1507 1511 1512 1512 1513 1516 1519 1521 1523 1524 1525 1525 1526 1526 1523 1522 1516 1517 1518 1519 1518 1517 1516
1468 1467 1467 1467 1467 1468 1470 1469 1472 1475 1478 1482 1487 1491 1491 1501 1502 1508 1506 1505 1506 1509 1509 1511 1512 1513 1516 1518 1521 1522 1525 1525 1524 1525 1525 1526 1519 1517 1513 1516 1517 1517 1516 1515 1514
1471 1470 1469 1469 1471 1472 1471 1472 1474 1476 1477 1484 1488 1490 1502 1506 1507 1508 1509 1507 1508 1509 1511 1512 1514 1514 1519 1521 1523 1523 1523 1524 1525 1525 1525 1527 1522 1510 1512 1514 1514 1514 1513 1513 1512
1474 1473 1471 1472 1473 1474 1475 1476 1479 1479 1481 1486 1489 1491 1511 1511 1511 1511 1511 1511 1510 1512 1513 1513 1514 1519 1522 1520 1524 1521 1525 1517 1526 1525 1524 1526 1521 1509 1510 1511 1510 1510 1510 1510 1510
1476 1474 1474 1475 1477 1478 1479 1481 1481 1484 1489 1493 1495 1499 1515 1514 1512 1514 1513 1513 1514 1514 1515 1516 1518 1520 1521 1527 1537 1528 1519 1514 1517 1524 1524 1525 1520 1510 1508 1508 1507 1508 1509 1509 1508
1479 1477 1473 1477 1480 1482 1483 1485 1488 1493 1495 1500 1503 1500 1512 1514 1515 1516 1514 1515 1515 1515 1515 1518 1523 1528 1528 1528 1527 1526 1525 1524 1519 1524 1525 1521 1514 1507 1505 1505 1506 1507 1508 1507 1507
1484 1482 1480 1483 1486 1488 1489 1489 1493 1498 1503 1505 1504 1502 1509 1514 1517 1516 1516 1517 1515 1517 1518 1521 1532 1530 1531 1531 1530 1530 1530 1528 1524 1523 1525 1518 1511 1504 1500 1502 1505 1506 1506 1505 1505
1488 1487 1487 1490 1491 1492 1493 1495 1497 1497 1506 1518 1519 1520 1518 1521 1521 1519 1518 1517 1516 1516 1519 1523 1532 1533 1531 1533 1534 1532 1536 1536 1537 1527 1517 1518 1508 1502 1500 1502 1503 1504 1504 1503 1503
1491 1491 1493 1494 1498 1498 1499 1500 1501 1500 1510 1528 1525 1525 1523 1521 1522 1522 1520 1522 1521 1523 1524 1531 1535 1534 1534 1536 1536 1533 1535 1535 1533 1537 1537 1522 1536 1496 1499 1500 1499 1502 1502 1501 1500
1495 1497 1499 1499 1500 1502 1503 1501 1500 1500 1513 1531 1526 1525 1523 1522 1524 1524 1522 1521 1521 1526 1528 1536 1536 1535 1533 1540 1534 1535 1536 1535 1533 1535 1538 1521 1537 1499 1493 1496 1500 1501 1501 1500 1499
1501 1501 1502 1502 1503 1503 1501 1501 1502 1505 1533 1528 1526 1524 1523 1522 1523 1523 1523 1524 1527 1526 1528 1533 1535 1534 1534 1534 1535 1534 1533 1530 1530 1532 1536 1530 1528 1511 1496 1497 1498 1499 1500 1499 1498
1507 1507 1507 1507 1505 1504 1502 1501 1506 1517 1532 1529 1526 1523 1521 1521 1522 1521 1522 1524 1528 1537 1545 1533 1532 1534 1535 1533 1532 1532 1537 1543 1542 1527 1536 1523 1537 1511 1493 1495 1497 1499 1499 1498 1496
1511 1510 1509 1508 1508 1507 1506 1507 1520 1530 1524 1525 1522 1522 1523 1522 1524 1524 1522 1529 1526 1523 1534 1538 1547 1531 1531 1530 1529 1525 1526 1551 1547 1544 1538 1525 1535 1504 1491 1493 1496 1497 1496 1497 1497
1511 1510 1508 1507 1506 1507 1509 1512 1525 1521 1521 1521 1523 1522 1525 1525 1525 1522 1524 1525 1527 1525 1528 1542 1537 1528 1529 1528 1530 1525 1529 1528 1542 1533 1541 1524 1505 1491 1489 1491 1492 1494 1496 1496 1495
1513 1511 1510 1508 1507 1507 1508 1515 1521 1519 1520 1521 1519 1520 1522 1524 1523 1521 1522 1526 1526 1527 1527 1525 1535 1525 1528 1530 1530 1530 1529 1538 1536 1554 1538 1515 1496 1497 1490 1490 1491 1492 1493 1495 1494
1512 1512 1512 1510 1508 1508 1517 1520 1522 1523 1523 1520 1517 1517 1519 1521 1518 1519 1522 1525 1525 1526 1526 1524 1527 1529 1528 1527 1524 1532 1531 1529 1525 1525 1540 1523 1509 1480 1485 1488 1488 1489 1490 1492 1492
1513 1513 1512 1511 1512 1512 1519 1517 1519 1522 1522 1520 1519 1515 1515 1517 1517 1517 1518 1521 1524 1525 1523 1525 1525 1531 1521 1513 1515 1518 1518 1520 1534 1520 1519 1518 1502 1474 1479 1483 1484 1485 1486 1488 1489
1515 1515 1514 1511 1517 1521 1523 1523 1522 1523 1522 1520 1519 1520 1520 1518 1521 1518 1520 1522 1523 1524 1524 1524 1525 1540 1520 1520 1517 1519 1513 1513 1513 1514 1518 1529 1500 1478 1480 1481 1482 1483 1483 1484 1485
1517 1520 1518 1516 1516 1517 1519 1521 1523 1524 1524 1524 1522 1522 1521 1520 1520 1520 1519 1522 1522 1523 1524 1525 1522 1524 1529 1510 1512 1513 1509 1507 1511 1524 1509 1497 1488 1481 1479 1479 1478 1477 1476 1477 1480
1518 1521 1522 1523 1520 1519 1519 1519 1521 1522 1524 1523 1522 1521 1520 1519 1518 1519 1517 1520 1522 1523 1525 1525 1525 1520 1515 1509 1508 1506 1501 1501 1502 1497 1503 1477 1485 1473 1475 1473 1472 1471 1470 1471 1472
1520 1522 1522 1522 1523 1523 1523 1520 1518 1520 1522 1521 1523 1519 1520 1521 1518 1518 1517 1517 1516 1522 1523 1521 1527 1517 1520 1506 1502 1499 1489 1487 1486 1485 1484 1480 1474 1469 1470 1468 1468 1465 1465 1465 1467
1524 1525 1524 1522 1522 1522 1520 1520 1522 1523 1522 1522 1521 1521 1520 1520 1519 1517 1517 1516 1515 1516 1520 1520 1525 1525 1517 1506 1504 1497 1471 1470 1475 1477 1478 1482 1466 1467 1467 1466 1465 1464 1463 1461 1461
Wind_Speed
6 9 8 8 8 9 7 6 6 6 7 10 12 17 12 10 15 10 4 3 4 10 12 8 7 11 7 4 3 5 2 2 4 6 6 5 2 2 4 6 5 6 9 12 15
2 3 8 10 5 9 11 8 6 4 5 8 14 13 14 17 13 9 4 5 9 13 10 10 10 12 5 4 1 2 2 6 8 10 6 7 4 7 4 9 7 9 7 3 7
7 6 5 7 7 6 6 8 5 6 2 7 13 10 24 21 11 7 1 6 11 13 7 7 11 8 5 7 2 2 3 4 9 8 7 5 6 1 5 6 4 9 11 13 15
9 7 8 8 6 4 6 6 4 6 5 4 15 21 24 14 5 6 1 7 8 11 10 10 10 6 6 4 2 3 5 6 4 3 2 4 8 7 13 16 15 11 10 12 10
9 9 10 9 8 6 9 6 5 10 9 11 20 19 15 14 13 8 6 7 8 12 8 5 8 5 5 7 4 2 3 2 3 2 4 7 10 9 18 18 13 10 7 10 13
10 9 8 8 5 5 6 7 7 10 10 19 19 27 15 14 13 7 6 6 5 8 8 5 2 3 7 6 2 5 1 3 2 2 4 5 6 8 3 4 1 4 10 13 17
9 10 6 4 6 8 9 7 11 12 13 14 12 15 20 13 13 9 7 9 10 8 9 10 8 2 8 4 4 4 3 5 6 2 2 6 7 9 13 5 5 11 16 16 14
11 9 11 12 12 11 11 10 11 6 15 24 19 18 11 16 13 11 8 9 9 10 11 13 11 9 5 7 4 4 2 3 3 3 3 3 7 4 6 4 11 16 15 13 11
11 10 9 12 9 11 12 12 17 22 22 19 23 16 9 8 11 8 7 9 9 8 10 10 9 4 3 2 1 4 3 5 4 2 2 4 7 12 15 19 15 14 11 10 9
13 9 7 11 10 14 16 17 25 31 21 18 16 16 7 3 7 8 7 6 6 10 8 5 4 2 2 4 1 4 3 2 1 5 4 8 15 17 20 16 10 10 5 10 12
17 14 11 16 17 22 20 22 13 16 28 14 16 33 18 14 10 6 6 5 3 2 3 4 4 5 7 7 4 5 5 6 6 4 3 8 11 15 18 6 6 2 8 10 13
17 18 25 23 21 16 10 13 13 15 17 30 30 27 16 7 7 10 7 1 2 5 2 2 5 6 5 4 5 5 4 4 6 2 6 9 15 17 8 4 1 1 8 9 13
16 17 23 21 16 19 30 27 22 17 10 14 15 12 8 8 6 10 8 6 7 5 3 5 7 3 2 2 4 3 2 5 4 9 11 8 8 4 4 6 9 5 11 11 16
15 18 18 22 28 32 21 12 6 5 4 8 4 4 6 0 5 8 5 3 4 7 8 6 2 1 1 4 3 1 3 4 7 7 3 7 4 4 9 8 7 10 14 11 16
19 20 22 24 26 7 5 7 4 2 6 6 3 2 4 4 5 6 7 6 8 6 2 3 4 2 2 3 1 2 3 6 4 4 5 2 0 5 6 6 5 9 12 11 16
4 10 13 13 7 3 12 10 3 1 5 1 2 2 6 7 3 3 3 7 3 4 7 4 2 2 3 1 4 4 4 4 2 2 3 2 2 5 3 2 2 8 10 10 16
20 22 11 8 2 7 14 5 4 6 3 2 3 4 5 4 4 4 5 3 3 4 2 3 4 4 3 4 5 5 2 2 2 2 3 3 2 9 5 6 2 5 8 12 13
8 8 3 6 7 9 10 1 8 4 3 3 5 3 2 1 2 4 5 4 2 3 4 4 2 7 7 3 2 2 1 3 3 2 3 5 6 5 6 7 5 3 5 9 12
9 6 6 7 4 3 2 5 4 4 5 8 3 3 1 2 2 2 4 2 3 5 0 3 3 3 4 2 1 1 1 2 0 3 1 4 6 7 8 5 4 1 2 7 6
6 3 12 7 5 2 2 5 3 4 5 5 2 4 4 3 4 4 2 1 3 1 5 2 2 6 5 2 5 3 2 1 1 2 5 6 5 5 6 4 3 4 4 4 4
4 2 12 7 7 5 3 4 5 5 2 3 1 3 4 4 2 2 3 4 2 4 4 3 2 3 3 7 7 3 3 4 3 2 3 4 6 2 6 6 6 5 7 7 5
6 2 11 7 3 5 3 2 3 5 3 1 4 5 3 1 2 1 2 4 4 0 2 4 3 3 8 4 5 1 5 7 3 4 4 3 7 7 7 7 9 10 11 11 9
3 3 10 5 3 3 0 3 4 1 1 1 1 4 3 1 1 1 2 6 5 4 2 2 2 3 1 2 2 4 5 6 6 3 6 2 6 4 6 7 11 12 13 13 11
3 2 5 7 5 7 4 2 3 1 1 2 3 2 1 3 2 0 4 4 7 5 2 1 3 6 5 3 2 6 8 8 10 4 7 15 17 12 8 8 14 20 18 17 17
4 2 1 2 3 2 1 1 4 3 2 2 3 5 3 2 3 3 3 4 6 5 2 2 4 6 9 13 12 16 17 14 15 15 13 19 16 17 12 12 21 23 24 21 21
3 2 2 3 1 7 1 3 4 4 2 4 3 1 2 3 4 3 2 4 4 7 3 5 4 5 7 13 16 18 19 19 20 21 20 21 26 17 24 24 9 11 10 23 21
7 6 3 3 2 2 2 3 2 3 3 4 4 3 6 4 9 8 11 15 11 4 7 4 2 3 5 8 12 13 12 20 17 8 9 15 20 9 6 7 10 11 13 14 18
Wind_Direction
153 164 149 165 183 172 177 176 177 212 225 203 214 196 177 149 124 90 85 139 151 148 124 111 122 134 124 106 49 350 303 215 43 23 91 122 252 120 292 298 305 278 290 296 311
98 133 192 205 187 182 178 166 143 161 229 208 202 177 157 125 103 77 90 158 142 133 109 137 147 139 126 131 90 347 320 36 26 25 82 97 354 6 327 310 272 248 280 300 303
73 117 107 133 183 180 209 189 160 103 138 216 191 194 143 137 118 52 92 127 140 133 140 167 147 146 99 139 68 87 32 111 63 53 29 9 295 317 305 274 75 4 325 310 298
65 95 120 134 165 177 210 208 208 172 121 131 184 178 148 155 114 359 174 119 139 123 115 133 145 145 125 121 90 120 51 18 94 84 23 322 328 287 252 250 298 305 295 286 303
72 84 105 124 137 134 128 107 117 147 141 153 155 162 132 87 54 6 75 117 124 105 120 155 170 121 122 107 139 66 109 87 97 351 309 300 271 260 276 268 274 276 315 324 314
66 97 112 130 127 136 133 90 120 133 141 144 146 151 118 80 56 9 57 85 110 93 118 134 123 70 92 116 360 87 111 105 49 348 281 301 279 317 164 143 210 264 311 317 317
66 82 70 121 114 129 119 105 136 136 150 155 144 124 100 72 65 51 72 108 107 116 121 124 127 25 125 105 118 122 219 189 198 160 343 331 272 227 237 243 275 290 308 320 320
65 92 75 117 128 126 122 112 140 141 170 140 132 127 73 78 66 83 69 83 112 134 134 128 114 99 50 114 159 216 214 197 126 175 131 11 280 157 142 203 286 296 310 318 313
51 72 95 121 106 123 105 116 117 106 124 138 138 123 109 80 58 61 86 83 89 105 110 106 98 100 128 212 157 200 272 186 165 192 10 199 280 302 321 310 291 308 321 309 342
56 61 106 129 125 116 109 119 99 105 109 126 114 88 118 80 48 48 55 85 99 92 76 53 64 112 35 52 88 333 261 101 236 166 230 275 269 278 279 290 324 315 324 353 358
62 49 97 129 122 107 114 112 77 56 67 74 81 106 108 77 59 35 71 74 72 69 97 33 68 80 61 29 9 355 351 319 326 105 330 265 282 286 282 293 265 74 352 4 350
71 79 107 114 110 111 92 92 86 108 62 61 68 77 69 51 69 31 40 140 226 86 128 76 86 59 61 30 21 1 338 340 302 77 311 279 287 281 256 156 160 255 39 10 340
81 102 110 112 103 115 108 102 95 97 78 50 52 55 36 59 39 19 41 18 30 90 31 90 85 90 343 47 12 132 21 8 307 313 276 284 277 152 171 178 202 217 33 1 348
91 95 110 111 110 113 91 77 76 93 93 24 38 16 342 222 57 30 39 57 34 58 66 71 117 355 204 49 351 322 22 312 315 7 300 28 286 258 154 199 187 40 14 1 347
104 107 104 107 124 99 70 15 20 78 72 359 6 47 42 104 139 23 29 64 69 87 240 79 155 205 46 196 291 11 323 295 329 305 340 128 13 246 141 213 59 22 1 348 343
95 129 128 122 80 57 353 346 69 33 72 105 3 189 111 87 85 136 107 81 107 95 65 91 51 293 34 218 236 310 273 263 238 269 266 277 98 281 139 88 338 6 347 334 334
121 122 120 129 245 346 349 33 42 54 236 102 124 116 95 86 81 63 95 78 118 88 22 215 164 151 223 239 196 227 209 318 325 209 233 185 31 246 318 93 50 335 330 324 324
147 196 259 252 267 303 334 299 64 258 126 166 174 162 70 14 63 173 191 138 190 266 161 157 258 192 164 269 337 1 331 140 229 315 293 102 237 255 111 141 128 353 310 326 316
48 60 13 341 325 268 213 50 136 190 144 150 205 142 113 117 288 246 40 60 34 346 50 116 274 94 201 331 285 143 213 49 52 226 312 232 258 276 177 158 91 327 302 303 314
2 38 18 49 38 62 55 100 102 115 128 188 152 275 133 116 207 221 177 292 138 321 306 123 317 199 131 219 248 295 28 195 243 300 283 279 242 224 185 211 253 193 214 240 278
30 341 3 9 50 66 75 80 113 127 336 320 83 132 117 153 294 146 115 153 206 149 286 312 111 168 121 204 178 172 237 224 302 257 220 307 276 170 184 198 213 202 225 220 233
42 358 360 28 27 47 29 70 118 151 203 235 317 9 32 346 104 72 65 52 121 113 307 72 323 261 222 97 44 290 256 186 175 250 218 241 267 173 160 180 200 208 219 229 228
39 12 18 46 80 60 161 56 358 127 214 250 47 346 6 348 301 341 116 118 168 218 355 78 234 315 286 64 187 236 225 237 280 315 232 228 268 142 163 201 212 220 224 232 231
57 14 28 51 24 122 145 125 119 16 35 324 6 326 247 216 188 256 211 164 190 216 169 28 264 213 211 218 17 244 250 228 210 209 243 233 262 267 253 213 217 217 219 231 243
48 66 61 336 38 65 281 198 138 177 248 253 211 263 303 283 210 218 214 148 195 193 206 244 254 243 261 274 282 271 263 246 242 230 230 262 261 264 286 299 296 252 226 219 229
64 348 14 98 45 306 77 206 206 134 235 193 264 37 257 266 356 340 28 239 244 153 220 196 270 320 281 263 260 265 256 243 237 246 256 262 272 276 279 275 298 315 294 216 227
44 29 13 151 170 285 46 63 315 31 194 300 324 313 252 295 334 307 290 284 283 215 198 206 209 335 268 353 322 286 263 241 234 247 240 246 254 288 303 316 314 285 288 244 236